Date String (YYYY-MM-DD hh:mm:ss) UTC,Instrument flags,absolute air pressure of the measurement (hPa),sample flow rate (lpm),inlet stack bypass flow (lpm),air temperature of the measurement (°C),ambient temperature measured by the external sensor (°C),aerosol sample conditioner tube jacket temperature (°C),OPC LED temperature (°C),internal box temperature (°C),relative humidity of the measurement (%),span deviation,mass concentration of particles derived from Lorenz-Mie calculation of OPC scattering (μg/m³),mass concentration of particles derived from Lorenz-Mie calculation of OPC scattering (μg/m³),mass concentration of particles derived from Lorenz-Mie calculation of OPC scattering (μg/m³)
DateTimeUTC,F1_M11,P_M11,Q1_M11,Q2_M11,T1_M11,T2_M11,T3_M11,T4_M11,T5_M11,U1_M11,ZSPAN_M11,X0_M11,X2_M11,X1_M11
2024-02-15 07:00:00,SystemResetWarning,0828.6,5.00,000.00,020.2,019.6,000.0,028.8,022.1,20.5,0000.0,0008.87,0006.43,0006.12
2024-02-15 07:01:00,SystemResetWarning,0828.6,4.99,000.00,020.2,019.6,000.0,028.8,022.1,20.5,0000.0,0008.96,0006.45,0006.12
2024-02-15 07:02:00,SystemResetWarning,0828.6,4.99,000.00,020.2,019.6,000.0,028.8,022.1,20.5,0000.0,0009.01,0006.46,0006.13
2024-02-15 07:03:00,SystemResetWarning,0828.6,5.00,000.00,020.2,019.6,000.0,028.8,022.0,20.5,0000.0,0009.05,0006.45,0006.14
2024-02-15 07:04:00,SystemResetWarning,0828.7,5.00,000.00,020.2,019.6,000.0,028.8,022.0,20.6,0000.0,0009.14,0006.49,0006.16
2024-02-15 07:05:00,SystemResetWarning,0828.7,5.00,000.00,020.2,019.6,000.0,028.8,022.0,20.6,0000.0,0009.07,0006.48,0006.16
2024-02-15 07:06:00,SystemResetWarning,0828.7,5.00,000.00,020.2,019.6,000.0,028.8,022.0,20.6,0000.0,0009.09,0006.46,0006.14
2024-02-15 07:07:00,SystemResetWarning,0828.7,5.01,000.00,020.2,019.6,000.0,028.8,022.0,20.6,0000.0,0009.20,0006.47,0006.14
2024-02-15 07:08:00,SystemResetWarning,0828.6,5.00,000.00,020.1,019.6,000.0,028.7,021.9,20.6,0000.0,0009.21,0006.48,0006.14
2024-02-15 07:09:00,SystemResetWarning,0828.6,5.00,000.00,020.1,019.5,000.0,028.7,021.9,20.6,0000.0,0009.20,0006.46,0006.13
2024-02-15 07:10:00,SystemResetWarning,0828.6,5.00,000.00,020.1,019.5,000.0,028.7,021.9,20.6,0000.0,0009.23,0006.46,0006.14
2024-02-15 07:11:00,SystemResetWarning,0828.6,5.00,000.00,020.1,019.5,000.0,028.7,021.9,20.6,0000.0,0009.27,0006.47,0006.16
2024-02-15 07:12:00,SystemResetWarning,0828.6,4.99,000.00,020.1,019.5,000.0,028.7,021.9,20.6,0000.0,0009.25,0006.47,0006.17
2024-02-15 07:13:00,SystemResetWarning,0828.7,5.00,000.00,020.1,019.5,000.0,028.7,021.9,20.6,0000.0,0009.19,0006.47,0006.17
2024-02-15 07:14:00,SystemResetWarning,0828.7,5.00,000.00,020.1,019.5,000.0,028.7,021.8,20.6,0000.0,0009.18,0006.48,0006.17
2024-02-15 07:15:00,SystemResetWarning,0828.8,5.00,000.00,020.0,019.5,000.0,028.7,021.9,20.6,0000.0,0009.18,0006.47,0006.16
2024-02-15 07:16:00,SystemResetWarning,0828.7,5.00,000.00,020.0,019.5,000.0,028.7,021.8,20.6,0000.0,0009.16,0006.44,0006.14
2024-02-15 07:17:00,SystemResetWarning,0828.7,5.00,000.00,020.0,019.4,000.0,028.7,021.8,20.7,0000.0,0009.15,0006.43,0006.13
2024-02-15 07:18:00,SystemResetWarning,0828.7,5.00,000.00,020.0,019.4,000.0,028.6,021.8,20.7,0000.0,0008.98,0006.39,0006.12
2024-02-15 07:19:00,SystemResetWarning,0828.7,5.00,000.00,020.0,019.4,000.0,028.6,021.7,20.7,0000.0,0008.93,0006.37,0006.11
2024-02-15 07:20:00,SystemResetWarning,0828.7,5.00,000.00,020.0,019.4,000.0,028.6,021.7,20.7,0000.0,0008.92,0006.39,0006.12
2024-02-15 07:21:00,SystemResetWarning,0828.6,5.00,000.00,019.9,019.3,000.0,028.6,021.7,20.8,0000.0,0008.84,0006.37,0006.12
2024-02-15 07:22:00,SystemResetWarning,0828.6,5.00,000.00,019.9,019.3,000.0,028.6,021.7,20.8,0000.0,0008.75,0006.35,0006.11
2024-02-15 07:23:00,SystemResetWarning,0828.6,5.01,000.00,019.9,019.3,000.0,028.6,021.7,20.8,0000.0,0008.69,0006.35,0006.12
2024-02-15 07:24:00,SystemResetWarning,0828.6,5.00,000.00,019.9,019.3,000.0,028.5,021.7,20.8,0000.0,0008.72,0006.36,0006.13
2024-02-15 07:25:00,SystemResetWarning,0828.6,5.00,000.00,019.9,019.3,000.0,028.5,021.7,20.8,0000.0,0008.70,0006.38,0006.15
2024-02-15 07:26:00,SystemResetWarning,0828.6,5.00,000.00,019.9,019.3,000.0,028.5,021.6,20.8,0000.0,0009.21,0006.38,0006.16
2024-02-15 07:27:00,SystemResetWarning,0828.6,5.00,000.00,019.9,019.3,000.0,028.5,021.6,20.8,0000.0,0009.44,0006.42,0006.19
2024-02-15 07:28:00,SystemResetWarning,0828.4,5.00,000.00,019.8,019.2,000.0,028.5,021.6,20.8,0000.0,0009.44,0006.43,0006.20
2024-02-15 07:29:00,SystemResetWarning,0828.3,5.00,000.00,019.8,019.2,000.0,028.5,021.6,20.8,0000.0,0009.60,0006.44,0006.21
2024-02-15 07:30:00,SystemResetWarning,0828.4,5.00,000.00,019.8,019.2,000.0,028.4,021.5,20.8,0000.0,0009.60,0006.44,0006.21
2024-02-15 07:31:00,SystemResetWarning,0828.3,5.00,000.00,019.8,019.2,000.0,028.4,021.5,20.8,0000.0,0009.59,0006.42,0006.20
2024-02-15 07:32:00,SystemResetWarning,0828.4,5.00,000.00,019.8,019.2,000.0,028.4,021.5,20.8,0000.0,0009.55,0006.40,0006.18
2024-02-15 07:33:00,SystemResetWarning,0828.4,5.00,000.00,019.7,019.1,000.0,028.4,021.5,20.8,0000.0,0009.55,0006.40,0006.18
2024-02-15 07:34:00,SystemResetWarning,0828.4,5.00,000.00,019.7,019.1,000.0,028.4,021.5,20.9,0000.0,0009.51,0006.39,0006.18
2024-02-15 07:35:00,SystemResetWarning,0828.4,5.00,000.00,019.7,019.1,000.0,028.4,021.5,22.4,0000.0,0009.43,0006.37,0006.17
2024-02-15 07:36:00,SystemResetWarning,0828.4,5.00,000.00,019.7,019.1,000.0,028.4,021.5,24.0,0000.0,0009.31,0006.32,0006.14
2024-02-15 07:37:00,SystemResetWarning,0828.4,5.00,000.00,019.7,019.1,000.0,028.3,021.4,22.2,0000.0,0008.80,0006.29,0006.13
2024-02-15 07:38:00,SystemResetWarning,0828.4,5.01,000.00,019.7,019.1,000.0,028.3,021.4,21.3,0000.0,0008.41,0006.24,0006.10
2024-02-15 07:39:00,SystemResetWarning,0828.4,4.99,000.00,019.6,019.1,000.0,028.3,021.4,21.1,0000.0,0008.33,0006.21,0006.09
2024-02-15 07:40:00,SystemResetWarning,0828.4,4.99,000.00,019.6,019.1,000.0,028.3,021.4,21.0,0000.0,0008.14,0006.20,0006.08
2024-02-15 07:41:00,SystemResetWarning,0828.4,5.00,000.00,019.6,019.1,000.0,028.3,021.3,20.9,0000.0,0008.10,0006.18,0006.08
2024-02-15 07:42:00,SystemResetWarning,0828.3,5.00,000.00,019.6,019.0,000.0,028.3,021.3,20.9,0000.0,0008.07,0006.18,0006.07
2024-02-15 07:43:00,SystemResetWarning,0828.3,5.01,000.00,019.6,019.0,000.0,028.2,021.3,20.9,0000.0,0008.05,0006.17,0006.07
2024-02-15 07:44:00,SystemResetWarning,0828.4,5.00,000.00,019.6,019.0,000.0,028.2,021.3,20.9,0000.0,0008.55,0006.17,0006.08
2024-02-15 07:45:00,SystemResetWarning,0828.4,5.00,000.00,019.5,019.0,000.0,028.2,021.3,20.9,0000.0,0009.01,0006.19,0006.08
2024-02-15 07:46:00,SystemResetWarning,0828.5,5.00,000.00,019.5,019.0,000.0,028.2,021.3,20.9,0000.0,0009.04,0006.21,0006.07
2024-02-15 07:47:00,SystemResetWarning,0828.6,5.00,000.00,019.5,019.0,000.0,028.2,021.3,20.9,0000.0,0009.19,0006.26,0006.08
2024-02-15 07:48:00,SystemResetWarning,0828.6,4.99,000.00,019.5,018.9,000.0,028.2,021.2,20.9,0000.0,0009.23,0006.26,0006.08
2024-02-15 07:49:00,SystemResetWarning,0828.6,5.00,000.00,019.5,018.9,000.0,028.1,021.2,20.9,0000.0,0009.30,0006.28,0006.08
2024-02-15 07:50:00,SystemResetWarning,0828.6,5.00,000.00,019.5,018.9,000.0,028.1,021.2,20.9,0000.0,0009.39,0006.31,0006.10
2024-02-15 07:51:00,SystemResetWarning,0828.5,5.00,000.00,019.5,018.9,000.0,028.1,021.2,20.9,0000.0,0009.39,0006.32,0006.11
2024-02-15 07:52:00,SystemResetWarning,0828.4,5.00,000.00,019.5,018.9,000.0,028.1,021.2,20.9,0000.0,0009.48,0006.37,0006.14
2024-02-15 07:53:00,SystemResetWarning,0828.3,5.00,000.00,019.5,018.9,000.0,028.1,021.2,20.9,0000.0,0009.62,0006.41,0006.18
2024-02-15 07:54:00,SystemResetWarning,0828.4,5.01,000.00,019.5,018.9,000.0,028.1,021.2,20.9,0000.0,0009.75,0006.47,0006.22
2024-02-15 07:55:00,SystemResetWarning,0828.4,5.01,000.00,019.4,018.9,000.0,028.1,021.2,20.9,0000.0,0009.52,0006.50,0006.24
2024-02-15 07:56:00,SystemResetWarning,0828.4,5.01,000.00,019.4,018.9,000.0,028.1,021.2,20.9,0000.0,0009.42,0006.54,0006.28
2024-02-15 07:57:00,SystemResetWarning,0828.4,5.00,000.00,019.4,018.9,000.0,028.0,021.2,20.9,0000.0,0009.44,0006.57,0006.34
2024-02-15 07:58:00,SystemResetWarning,0828.6,5.00,000.00,019.4,018.8,000.0,028.0,021.2,20.9,0000.0,0009.38,0006.62,0006.41
2024-02-15 07:59:00,SystemResetWarning,0828.5,5.00,000.00,019.4,018.8,000.0,028.0,021.1,20.9,0000.0,0009.50,0006.70,0006.48
